Fredericksburg, TX

12:51 PM CDT on August 28, 2016 (GMT -0500)
Fredericksburg

Weather History for KT82 - April, 2014

Change the Weather History Date:

Tuesday, April 15, 2014

  Actual Average (KSAT) Record (KSAT)
Temperature  
Mean Temperature 48 °F 69 °F  
Max Temperature 63 °F 80 °F 95 °F (2006)
Min Temperature 34 °F 58 °F 38 °F (1980)
Degree Days  
Heating Degree Days 16 1  
Month to date heating degree days 30  
Since 1 July heating degree days 1485  
Cooling Degree Days 0 5  
Month to date cooling degree days 66  
Year to date cooling degree days 157  
Moisture  
Dew Point 21 °F    
Average Humidity 35    
Maximum Humidity 69    
Minimum Humidity 16    
Precipitation  
Precipitation 0.00 in 0.07 in 2.53 in (1973)
Month to date precipitation 0.91  
Year to date precipitation 6.77  
Snow  
Snow 0.00 in - - ()
Month to date snowfall  
Since 1 July snowfall  
Snow Depth -    
Sea Level Pressure  
Sea Level Pressure 30.24 in    
Wind  
Wind Speed 5 mph (East)    
Max Wind Speed 12 mph    
Max Gust Speed -    
Visibility 10 miles    
Events      
T = Trace of Precipitation, MM = Missing Value Source: NWS Daily Summary

Daily Weather History Graph

Daily Weather History Graph

Search for Another Location

Airport or City:

Trip Planner

Search our weather history database for the weather conditions in past years. The results will help you decide how hot, cold, wet, or windy it might be!

Date:

Astronomy

Apr. 15, 2014 Rise Set
Actual Time 7:08 AM CDT 8:03 PM CDT
Civil Twilight 6:43 AM CDT 8:27 PM CDT
Nautical Twilight 6:14 AM CDT 8:56 PM CDT
Astronomical Twilight 5:45 AM CDT 9:26 PM CDT
Moon 8:42 PM CDT (4/15) 7:18 AM CDT (4/15)
Length of Visible Light 13h 43m
Length of Day
12h 54m
Full, 100% of the Moon is Illuminated
Apr 15
Full
Apr 22
Last Quarter
Apr 29
New
May 6
First Quarter
May 14
Full

Hourly Weather History & Observations

Time (CDT) Temp. Windchill Dew Point Humidity Pressure Visibility Wind Dir Wind Speed Gust Speed Precip Events Conditions
12:35 AM 43.3 °F 38.6 °F 26.6 °F 52% 30.27 in 10.0 mi North 8.1 mph - N/A   Clear
12:55 AM 42.3 °F 37.9 °F 26.4 °F 54% 30.28 in 10.0 mi North 6.9 mph - N/A   Clear
1:15 AM 43.2 °F 37.9 °F 25.2 °F 49% 30.28 in 10.0 mi North 9.2 mph - N/A   Clear
1:35 AM 43.5 °F 37.9 °F 24.1 °F 46% 30.28 in 10.0 mi North 10.4 mph - N/A   Clear
1:55 AM 43.7 °F 37.7 °F 22.8 °F 44% 30.29 in 10.0 mi North 11.5 mph - N/A   Clear
2:15 AM 43.2 °F 38.4 °F 23.2 °F 45% 30.29 in 10.0 mi North 8.1 mph - N/A   Clear
2:35 AM 41.9 °F 36.3 °F 23.7 °F 49% 30.29 in 10.0 mi North 9.2 mph - N/A   Clear
2:55 AM 41.4 °F 35.7 °F 22.6 °F 47% 30.29 in 10.0 mi North 9.2 mph - N/A   Clear
3:15 AM 40.5 °F 35.8 °F 22.3 °F 48% 30.29 in 10.0 mi North 6.9 mph - N/A   Clear
3:35 AM 37.9 °F 34.4 °F 23.7 °F 57% 30.29 in 10.0 mi North 4.6 mph - N/A   Clear
3:55 AM 36.9 °F 32.2 °F 23.7 °F 59% 30.28 in 10.0 mi North 5.8 mph - N/A   Clear
4:15 AM 37.9 °F 32.7 °F 23.0 °F 55% 30.29 in 10.0 mi North 6.9 mph - N/A   Clear
4:30 AM 37.8 °F 32.5 °F 23.0 °F 55% 30.29 in 10.0 mi North 6.9 mph - N/A   Clear
5:15 AM 39.0 °F 32.3 °F 21.9 °F 50% 30.29 in 10.0 mi North 10.4 mph - N/A   Clear
5:35 AM 39.0 °F 32.8 °F 21.6 °F 50% 30.29 in 10.0 mi North 9.2 mph - N/A   Clear
5:55 AM 38.5 °F 33.4 °F 21.6 °F 51% 30.30 in 10.0 mi NNE 6.9 mph - N/A   Clear
6:15 AM 37.9 °F 33.5 °F 21.6 °F 52% 30.30 in 10.0 mi NNE 5.8 mph - N/A   Clear
6:35 AM 37.6 °F 33.1 °F 21.4 °F 52% 30.31 in 10.0 mi NNE 5.8 mph - N/A   Clear
6:55 AM 36.5 °F - 21.7 °F 55% 30.32 in 10.0 mi Calm Calm - N/A   Clear
7:15 AM 35.6 °F - 23.4 °F 61% 30.33 in 10.0 mi Calm Calm - N/A   Clear
7:35 AM 34.3 °F 31.4 °F 25.0 °F 69% 30.33 in 10.0 mi SW 3.5 mph - N/A   Clear
7:55 AM 35.8 °F - 26.4 °F 69% 30.34 in 10.0 mi Calm Calm - N/A   Clear
8:15 AM 38.8 °F - 22.6 °F 52% 30.35 in 10.0 mi Calm Calm - N/A   Clear
8:35 AM 40.1 °F - 21.6 °F 48% 30.35 in 10.0 mi Calm Calm - N/A   Clear
8:55 AM 41.5 °F 38.6 °F 22.3 °F 46% 30.35 in 10.0 mi North 4.6 mph - N/A   Clear
9:15 AM 43.7 °F - 19.2 °F 38% 30.36 in 10.0 mi Calm Calm - N/A   Clear
9:35 AM 45.5 °F - 17.6 °F 33% 30.35 in 10.0 mi Calm Calm - N/A   Clear
9:55 AM 47.1 °F - 17.6 °F 31% 30.35 in 10.0 mi NNE 8.1 mph - N/A   Clear
10:15 AM 48.9 °F - 16.5 °F 28% 30.36 in 10.0 mi East 9.2 mph - N/A   Clear
10:35 AM 49.3 °F - 16.0 °F 27% 30.36 in 10.0 mi ENE 8.1 mph - N/A   Clear
10:55 AM 50.0 °F - 16.3 °F 26% 30.36 in 10.0 mi North 3.5 mph - N/A   Clear
11:35 AM 50.9 °F - 15.1 °F 24% 30.34 in 10.0 mi East 3.5 mph - N/A   Clear
11:55 AM 52.0 °F - 16.0 °F 24% 30.33 in 10.0 mi ENE 4.6 mph - N/A   Clear
12:35 PM 52.9 °F - 16.5 °F 24% 30.32 in 10.0 mi Calm Calm - N/A   Clear
12:55 PM 54.5 °F - 18.3 °F 24% 30.30 in 10.0 mi Calm Calm - N/A   Clear
1:15 PM 54.3 °F - 16.7 °F 23% 30.29 in 10.0 mi WSW 4.6 mph - N/A   Clear
1:35 PM 54.1 °F - 15.3 °F 22% 30.28 in 10.0 mi Calm Calm - N/A   Clear
1:55 PM 55.2 °F - 14.9 °F 20% 30.27 in 10.0 mi Calm Calm - N/A   Clear
2:15 PM 56.8 °F - 17.1 °F 21% 30.25 in 10.0 mi Calm Calm - N/A   Clear
2:35 PM 56.8 °F - 15.8 °F 20% 30.24 in 10.0 mi Calm Calm - N/A   Clear
2:55 PM 57.7 °F - 16.3 °F 20% 30.24 in 10.0 mi Calm Calm - N/A   Clear
3:15 PM 58.8 °F - 16.3 °F 19% 30.22 in 10.0 mi Calm Calm - N/A   Clear
3:35 PM 60.1 °F - 17.1 °F 19% 30.21 in 10.0 mi SW 5.8 mph - N/A   Clear
3:55 PM 60.1 °F - 15.6 °F 18% 30.20 in 10.0 mi ESE 3.5 mph - N/A   Clear
4:15 PM 62.8 °F - 18.1 °F 18% 30.18 in 10.0 mi Calm Calm - N/A   Clear
4:35 PM 61.5 °F - 15.3 °F 17% 30.17 in 10.0 mi Calm Calm - N/A   Clear
4:55 PM 62.2 °F - 15.6 °F 16% 30.16 in 10.0 mi Calm Calm - N/A   Clear
5:15 PM 63.1 °F - 17.4 °F 17% 30.15 in 10.0 mi SSE 4.6 mph - N/A   Clear
5:35 PM 62.2 °F - 17.1 °F 17% 30.15 in 10.0 mi Calm Calm - N/A   Clear
5:55 PM 63.1 °F - 20.1 °F 19% 30.14 in 10.0 mi SSE 3.5 mph - N/A   Clear
6:15 PM 62.6 °F - 20.1 °F 20% 30.14 in 10.0 mi South 4.6 mph - N/A   Clear
6:35 PM 62.8 °F - 20.5 °F 20% 30.13 in 10.0 mi South 8.1 mph - N/A   Clear
6:55 PM 62.2 °F - 20.3 °F 20% 30.12 in 10.0 mi South 3.5 mph - N/A   Clear
7:15 PM 61.9 °F - 17.4 °F 18% 30.12 in 10.0 mi SSE 4.6 mph - N/A   Clear
7:35 PM 60.8 °F - 18.9 °F 20% 30.11 in 10.0 mi SSE 4.6 mph - N/A   Clear
7:55 PM 59.2 °F - 20.8 °F 23% 30.11 in 10.0 mi SSE 3.5 mph - N/A   Clear
8:15 PM 57.4 °F - 22.5 °F 26% 30.11 in 10.0 mi SE 3.5 mph - N/A   Clear
8:35 PM 55.8 °F - 22.8 °F 28% 30.11 in 10.0 mi SE 4.6 mph - N/A   Clear
8:55 PM 54.5 °F - 23.0 °F 29% 30.11 in 10.0 mi SE 5.8 mph - N/A   Clear
9:15 PM 53.8 °F - 23.0 °F 30% 30.12 in 10.0 mi SE 3.5 mph - N/A   Clear
9:35 PM 52.5 °F - 23.7 °F 33% 30.12 in 10.0 mi SE 3.5 mph - N/A   Clear
9:55 PM 51.3 °F - 23.9 °F 34% 30.13 in 10.0 mi SSE 4.6 mph - N/A   Clear
10:15 PM 50.7 °F - 24.3 °F 36% 30.13 in 10.0 mi SE 3.5 mph - N/A   Clear
10:35 PM 50.0 °F - 24.3 °F 37% 30.13 in 10.0 mi SE 3.5 mph - N/A   Clear
10:55 PM 49.6 °F - 23.7 °F 36% 30.13 in 10.0 mi SE 4.6 mph - N/A   Clear
11:15 PM 49.1 °F - 23.9 °F 37% 30.13 in 10.0 mi SE 3.5 mph - N/A   Clear
11:35 PM 48.0 °F - 24.4 °F 40% 30.12 in 10.0 mi SE 3.5 mph - N/A   Clear
11:55 PM 47.7 °F - 24.3 °F 40% 30.12 in 10.0 mi SE 4.6 mph - N/A   Clear